#timestamp,LO_Frequency,Hit,StdDev 
1514829615.0,286046999.2,N
1514829615.9,286046999.2,N
1514829635.8,286046999.5,N
1514829655.6,286046997.0,N
1514829675.4,286046997.6,N
1514829695.3,286046997.7,N
1514829715.1,286046995.6,N
1514829735.9,286046995.5,N
1514829755.7,286046995.7,N
1514829775.5,286046995.7,N
1514829795.4,286046995.1,N
1514829815.2,286046995.8,N
1514829835.0,286046993.6,N
1514829835.9,286046993.6,N
1514829855.8,286046994.0,N
1514829875.6,286046994.1,N
1514829895.5,286046991.9,Y
1514829915.3,286046994.6,P
1514829935.1,286046994.4,P
1514829955.9,286046994.8,P
1514829975.7,286046993.2,Y
1514829995.6,286046998.0,P
1514830015.4,286046995.7,P
1514830035.2,286046993.4,P
1514830055.1,286046994.8,Y
1514830056.0,286046994.8,P
1514830075.8,286046995.2,P
1514830095.7,286046992.6,P
1514830115.5,286046992.9,Y
1514830135.3,286046996.8,P
1514830155.2,286046995.1,P
1514830175.0,286046996.2,P
1514830175.9,286046996.2,Y
1514830195.8,286046997.1,P
1514830215.6,286046996.7,P
1514830235.4,286046995.1,P
1514830255.3,286046996.2,Y
1514830275.1,286046997.4,P
1514830295.8,286046995.2,P
1514830315.7,286046995.8,P
1514830335.5,286046995.2,Y
1514830355.4,286046999.4,P
1514830375.2,286046998.4,N
1514830425.1,286046998.7,E
1514830435.9,286046999.5,N
1514830455.7,286046996.9,P
1514830475.6,286047011.9,P
1514830495.4,286046993.8,N
1514830515.2,286046994.3,N
1514830535.1,286046994.8,N
1514830536.0,286046994.8,N
1514830555.8,286046991.8,N
1514830575.7,286046992.1,N
1514830595.5,286046992.9,N
1514830615.3,286046992.7,N
1514830635.2,286046990.8,N
1514830655.0,286046989.1,N
1514830655.9,286046989.1,N
1514830675.8,286046987.3,N
1514830695.6,286046987.5,N
1514830715.4,286046987.8,N
1514830735.3,286046986.3,N
1514830755.1,286046986.1,N
1514830775.8,286046984.6,N
1514830795.7,286046985.1,N
1514830815.5,286046982.2,N
1514830835.4,286046985.0,N
1514830855.2,286046983.0,N
1514830875.0,286046980.6,Y
1514830875.9,286046980.6,P
1514830895.8,286046988.5,N
1514830915.6,286046991.6,N
1514830935.5,286046989.0,N
1514830955.3,286046989.1,N
1514830975.1,286046986.9,Y
1514830995.9,286046997.0,P
1514831015.7,286046996.9,N
1514831035.6,286046995.0,N
1514831055.4,286046995.8,N
1514831075.2,286046993.6,N
1514831095.1,286046993.3,N
1514831096.0,286046993.3,N
1514831115.8,286046996.4,N
1514831135.7,286046992.2,Y
1514831155.5,286046999.4,P
1514831175.3,286046997.2,N
1514831195.2,286046996.1,N
1514831215.0,286046995.9,N
1514831215.9,286046995.9,N
1514831235.8,286046993.3,Y
1514831255.6,286046996.6,P
1514831275.4,286046996.7,P
1514831295.3,286046997.3,P
1514831315.1,286046996.7,Y
1514831335.9,286047000.8,P
1514831355.7,286046998.4,N
1514831375.5,286046998.5,N
1514831395.4,286046998.5,N
1514831415.2,286046997.1,N
1514831435.0,286046996.6,N
1514831435.9,286046996.6,N
1514831455.8,286046997.3,N
1514831475.6,286046999.1,N
1514831495.5,286046998.0,N
1514831515.3,286046994.9,Y
1514831535.1,286046997.5,P
1514831555.9,286046995.3,P
1514831575.7,286046995.2,P
1514831595.6,286046996.3,N
1514831615.4,286046993.9,Y
1514831635.2,286046996.6,P
1514831655.1,286046999.1,P
1514831656.0,286046999.1,N
1514831675.8,286046998.9,N
1514831695.7,286046996.5,N
1514831715.5,286046999.6,N
1514831735.3,286046998.9,N
1514831755.2,286046998.6,N
1514831775.0,286046999.2,N
1514831775.9,286046999.2,N
1514831795.7,286046999.3,N
1514831815.6,286046999.3,N
1514831835.4,286046999.4,N
1514831855.3,286046996.7,Y
1514831875.1,286046998.7,P
1514831895.8,286046997.4,P
1514831915.7,286046995.4,P
1514831935.5,286046995.5,Y
1514831985.4,286046997.3,E
1514831995.3,286046996.7,N
1514832015.1,286046999.9,P
1514832035.9,286047001.9,N
1514832055.7,286047001.4,N
1514832075.6,286047004.3,N
1514832095.4,286047001.3,N
1514832115.2,286047004.2,N
1514832135.1,286047003.4,N
1514832136.0,286047003.4,N
1514832155.8,286047003.8,N
1514832175.7,286047002.9,N
1514832195.5,286047003.7,N
1514832215.3,286047003.8,N
1514832235.2,286047003.8,N
1514832255.0,286047001.7,N
1514832255.9,286047001.7,N
1514832275.8,286047001.7,N
1514832295.6,286047002.4,N
1514832315.4,286047000.8,N
1514832335.3,286046998.8,N
1514832355.1,286046998.7,N
1514832375.8,286046998.9,N
1514832395.7,286046996.8,N
1514832415.5,286046996.6,N
1514832435.4,286046998.9,N
1514832455.2,286046999.0,N
1514832475.0,286046999.5,N
1514832475.9,286046999.5,N
1514832495.8,286046998.7,N
1514832515.6,286046996.7,N
1514832535.5,286046998.9,N
1514832555.3,286047001.2,N
1514832575.1,286046998.5,N
1514832595.9,286047001.1,N
1514832615.7,286047001.1,N
1514832635.5,286047002.4,N
1514832655.4,286047001.6,N
1514832675.2,286047001.6,N
1514832695.1,286047004.3,N
1514832696.0,286047004.3,N
1514832715.8,286047001.4,N
1514832735.6,286047004.0,N
1514832755.5,286047003.2,N
1514832775.3,286047001.3,N
1514832795.2,286047003.2,N
1514832815.9,286047003.7,N
1514832835.7,286047003.1,N
1514832855.6,286047003.4,N
1514832875.4,286047001.9,N
1514832895.2,286047001.4,N
1514832915.1,286047003.1,N
1514832916.0,286047003.1,N
1514832935.8,286047001.5,N
1514832955.7,286047005.6,N
1514832975.5,286047005.7,N
1514832995.3,286047004.6,N
1514833015.2,286047006.4,N
1514833035.0,286047006.7,N
1514833035.9,286047006.7,N
1514833055.8,286047008.0,Y
1514833075.6,286047003.3,P
1514833095.4,286047005.5,P
1514833115.3,286047004.7,P
1514833135.1,286047006.6,Y
1514833155.9,286047004.4,P
1514833175.7,286047003.0,P
1514833195.5,286047005.5,P
